Wind_Speed
35 34 34 33 33 32 29 27 25 24 23 21 21 20 19 18 17 17 15 14 14 14 13 12 12 11 10 9 9 8 7 6 5 5 5 4 4 4 3 3 3 3 4 4 4 4 4 4 5
36 36 36 36 36 34 30 28 27 26 25 24 23 22 21 19 19 18 17 16 16 15 15 14 13 13 12 11 10 9 8 7 7 6 6 5 5 5 5 5 5 5 5 5 5 5 5 5 6
38 38 38 38 38 35 30 28 29 29 27 26 25 24 23 21 20 19 19 18 18 17 17 16 15 14 14 13 11 10 9 9 8 7 7 7 7 6 6 6 7 7 7 6 6 6 6 6 7
40 40 41 41 38 35 32 31 31 31 30 29 28 26 25 23 22 21 21 19 19 19 18 18 17 16 15 14 13 12 11 10 10 9 9 8 8 8 8 8 8 8 8 8 8 8 8 8 8
42 43 43 42 39 36 34 34 34 33 32 30 29 28 26 25 24 23 22 21 21 20 20 19 19 18 17 16 15 14 13 12 12 11 10 10 10 9 9 9 10 10 10 10 10 10 10 9 9
45 45 44 42 40 38 37 36 36 35 34 32 31 30 28 26 25 25 24 23 22 22 21 21 20 19 18 18 17 16 15 14 13 13 12 12 11 11 11 11 11 11 11 11 11 11 11 11 11
47 46 45 42 41 40 39 39 38 37 36 34 33 32 30 28 27 26 26 25 24 23 23 23 22 21 20 19 19 18 17 16 15 14 14 13 13 13 12 12 12 12 12 12 12 12 13 13 13
46 47 46 44 43 41 40 41 40 39 37 36 36 35 32 30 29 28 28 27 26 25 24 24 24 23 22 22 21 20 19 18 17 16 15 15 14 14 14 13 13 13 13 13 13 14 14 14 15
45 47 45 44 44 42 42 43 41 41 39 38 37 36 35 33 31 30 29 29 28 27 26 25 25 24 24 23 23 22 21 20 19 18 17 16 16 15 15 14 14 14 14 14 15 15 15 16 16
45 45 44 44 44 44 44 44 43 42 41 40 39 38 37 35 33 31 30 30 29 28 28 27 27 26 25 24 24 23 22 21 20 19 18 18 17 17 16 16 16 16 16 16 16 16 17 17 17
44 44 43 44 45 45 46 46 46 44 43 41 40 39 38 36 35 33 32 32 31 31 30 29 28 28 27 26 25 24 23 23 22 21 20 19 19 18 18 18 18 18 18 18 18 18 18 18 18
44 44 44 43 45 46 48 47 47 46 43 42 41 40 40 39 37 35 34 33 32 32 31 30 29 29 29 28 27 26 25 24 23 22 22 21 20 20 19 20 20 20 19 19 19 19 19 19 19
44 43 44 45 45 46 48 48 48 47 45 43 43 42 42 41 39 37 35 34 34 33 32 32 31 30 30 30 28 28 27 26 25 24 23 23 22 22 21 21 21 21 20 20 20 21 21 21 21
43 44 45 45 45 46 47 48 49 48 46 45 44 44 43 42 41 39 37 36 35 34 34 33 32 32 31 30 30 29 29 28 27 26 25 25 24 24 23 22 22 23 22 22 22 22 23 23 23
42 43 44 45 46 47 48 48 48 48 47 46 45 45 45 43 42 40 39 38 37 36 35 34 34 33 33 32 31 31 30 30 29 28 27 26 26 25 25 24 24 24 24 24 24 24 24 24 25
40 42 44 44 45 46 48 48 47 48 48 47 46 46 46 45 43 42 41 40 39 38 37 36 35 35 34 33 33 33 32 31 30 29 29 28 27 27 26 26 26 25 25 25 25 26 26 26 27
38 39 40 41 42 42 45 46 46 47 48 48 47 47 47 47 46 44 43 42 41 40 39 38 37 36 36 35 35 34 33 33 32 31 30 30 29 28 28 28 28 28 27 27 27 27 28 28 28
36 36 36 37 38 40 42 43 44 46 47 48 48 48 48 47 46 46 45 43 42 42 41 40 39 38 37 36 36 35 35 34 33 32 31 31 30 30 30 30 30 29 29 29 29 28 28 29 30
34 34 34 35 36 39 40 41 42 44 45 46 47 48 47 47 47 47 46 45 43 43 42 41 40 39 38 37 36 36 35 35 34 33 33 32 32 32 31 31 31 31 31 31 31 31 31 31 31
33 33 33 34 35 37 39 39 40 43 44 44 46 48 47 47 48 47 46 46 44 44 43 42 40 40 39 38 37 36 36 35 34 34 33 33 33 33 33 33 33 33 33 33 33 33 33 33 33
32 33 32 32 34 35 37 38 38 40 42 44 46 47 47 47 47 47 46 46 45 44 43 42 41 40 40 38 38 37 36 36 35 35 34 35 34 34 34 35 35 35 35 35 34 34 34 35 35
31 32 31 31 32 34 36 37 37 38 40 43 45 47 48 47 47 47 46 46 46 45 44 43 43 42 41 40 39 38 37 37 37 36 35 35 35 35 35 36 36 36 36 36 36 36 36 36 36
29 31 30 30 32 33 35 36 36 37 39 40 42 45 47 48 47 47 46 46 46 46 45 44 43 43 42 41 40 40 39 39 38 38 37 37 37 37 37 37 37 37 37 37 37 37 37 37 37
28 30 30 29 30 32 33 34 35 35 36 38 41 42 45 47 48 47 46 46 46 46 46 45 44 43 43 42 42 41 40 40 40 39 38 38 38 38 38 38 38 38 38 38 38 38 38 38 39
27 29 30 30 30 32 32 34 35 34 35 37 39 41 43 45 47 48 47 46 46 46 45 45 45 44 44 43 42 42 41 41 41 41 40 40 39 39 38 39 39 40 40 40 39 39 39 40 40
26 27 29 30 32 32 31 34 34 34 35 35 37 39 41 44 46 47 47 46 46 46 45 45 45 44 44 44 43 43 43 43 43 42 42 41 41 40 39 39 40 40 41 41 41 40 40 41 41
25 26 28 29 30 31 31 32 33 33 33 35 36 38 39 41 43 45 46 47 46 46 46 45 45 45 45 44 45 44 44 43 43 43 43 42 41 40 40 40 40 41 41 41 41 41 42 42 43
23 25 26 27 29 30 29 29 30 30 31 32 34 36 38 39 41 43 44 45 46 46 45 45 46 46 45 45 45 45 45 44 44 44 43 42 42 42 41 41 40 40 41 41 41 42 43 43 43
22 22 25 27 28 29 31 30 29 30 30 31 33 35 36 38 39 41 43 44 45 46 46 46 46 46 46 46 46 45 45 45 45 45 44 43 42 42 41 41 41 41 41 41 41 42 43 44 44
20 21 23 26 28 28 30 30 28 28 29 30 32 34 35 37 39 40 40 43 44 46 46 46 46 46 46 46 46 46 46 46 45 44 44 44 43 43 43 42 42 42 42 42 42 43 44 45 45
Wind_Direction
235 234 233 232 232 231 230 229 229 228 228 228 228 229 227 227 227 230 228 224 221 220 218 215 214 215 216 217 219 222 223 223 225 227 229 234 245 251 256 265 280 289 294 302 313 319 322 324 324
234 233 233 233 233 232 230 230 230 229 228 229 228 229 229 228 227 228 228 226 223 222 221 218 218 219 220 221 223 225 227 227 228 231 234 241 250 257 261 267 275 282 287 294 303 308 311 314 314
235 234 233 234 233 232 230 230 230 230 229 229 230 231 230 229 228 227 228 227 225 223 222 221 221 222 222 224 226 228 231 233 234 236 240 247 254 260 266 270 274 279 283 289 294 300 304 305 307
234 234 234 234 234 232 231 230 230 230 229 229 231 231 231 229 228 228 228 228 227 225 224 223 225 226 227 228 229 231 234 238 240 241 246 252 258 263 268 270 273 276 278 283 289 295 299 301 304
234 233 234 234 234 232 231 230 230 230 229 229 230 231 231 229 228 228 228 228 227 227 226 226 227 229 230 230 231 235 238 240 243 245 249 254 260 266 270 272 275 276 277 280 286 291 294 297 298
234 234 234 234 234 233 231 231 231 230 229 229 230 230 230 229 228 228 229 228 228 227 227 227 228 230 230 231 233 237 239 241 243 247 251 256 261 266 270 272 274 276 277 281 285 287 289 292 294
234 234 234 234 233 231 231 231 231 231 230 230 230 230 230 229 228 228 229 229 229 228 228 229 230 231 231 232 234 237 240 243 245 248 252 256 260 263 266 270 273 274 277 280 284 286 287 288 290
234 234 234 233 233 231 230 231 231 231 230 230 230 230 229 229 228 229 229 229 230 230 230 231 232 233 233 235 236 238 240 243 246 249 252 255 258 261 264 267 270 272 275 279 283 284 285 286 288
234 234 234 233 233 231 230 230 230 230 229 228 229 230 229 229 229 229 231 231 231 231 231 232 233 234 235 236 238 240 242 243 246 248 252 255 257 260 263 266 269 273 276 279 281 282 284 286 287
234 234 234 234 233 231 229 229 230 230 229 228 229 230 230 230 230 230 231 232 232 232 233 233 234 234 235 237 238 240 242 244 246 248 251 254 256 258 261 265 269 273 276 279 281 282 284 285 286
234 234 233 233 232 231 230 229 229 230 230 229 229 230 231 231 231 230 231 231 232 232 233 233 234 234 236 237 239 241 242 244 245 247 251 254 256 258 262 266 269 273 276 278 280 281 283 283 284
235 233 233 233 232 230 229 229 229 230 230 230 230 230 231 231 230 230 230 232 232 232 232 233 234 235 236 238 239 240 242 243 245 247 250 253 256 259 263 266 269 272 275 277 278 280 281 282 282
235 234 233 232 232 232 230 229 229 230 229 230 230 230 231 232 231 230 230 231 232 232 233 233 235 236 237 238 239 240 242 244 245 247 250 253 256 260 263 265 267 270 274 276 278 279 281 281 282
235 233 232 232 232 232 231 230 229 229 229 230 231 231 231 231 232 231 231 231 232 233 233 234 236 237 238 239 240 241 243 244 246 248 250 253 256 259 261 265 268 270 272 275 277 279 280 280 281
234 233 232 232 232 232 231 230 229 229 229 229 230 230 231 231 231 231 231 231 231 233 234 235 237 238 239 240 241 242 243 245 246 248 251 254 256 259 262 264 268 270 271 274 276 278 279 279 281
233 232 231 230 232 232 232 230 229 229 229 228 228 229 230 231 231 230 230 231 231 232 234 235 237 238 239 240 241 242 244 246 248 250 252 254 256 259 262 264 267 269 271 273 275 277 278 279 281
231 231 230 228 230 231 232 231 229 230 229 228 229 229 230 230 230 230 230 231 232 233 234 235 237 238 240 240 241 243 244 246 248 250 252 255 257 259 262 263 265 267 269 273 275 277 278 278 280
230 229 229 229 228 230 232 231 230 231 231 229 229 229 230 230 230 231 231 231 232 233 234 235 236 238 239 241 242 244 245 247 249 250 252 254 256 259 261 263 265 267 269 272 274 276 278 278 279
228 229 230 229 231 232 233 233 231 231 231 230 229 229 229 229 230 230 230 231 232 233 234 236 237 237 239 240 242 244 246 248 249 250 252 254 257 259 262 264 266 268 269 271 273 275 277 278 279
228 229 230 231 232 233 233 233 231 230 231 230 229 229 228 228 229 229 229 230 231 233 234 236 237 238 239 240 242 244 246 248 250 251 252 255 257 260 262 264 266 268 269 271 273 274 276 278 279
229 231 232 232 232 235 235 233 231 231 232 230 230 228 228 228 228 229 230 230 231 233 234 235 237 238 238 240 242 244 246 247 249 251 253 255 258 260 262 264 266 268 269 272 273 274 276 278 279
231 231 233 233 234 235 235 235 231 232 232 231 230 228 227 227 227 228 229 231 232 232 233 235 236 237 239 240 242 244 246 248 249 252 254 256 259 261 263 264 266 268 270 272 274 275 276 278 279
233 232 234 236 237 237 237 238 233 232 231 231 231 230 228 227 227 228 229 231 232 232 233 234 236 237 239 240 242 245 246 248 250 252 254 257 259 261 263 264 266 268 271 273 274 274 276 277 278
232 232 235 238 239 240 238 240 237 234 233 232 232 231 230 229 227 228 230 230 232 233 233 234 235 237 239 241 243 245 247 248 250 252 254 257 259 261 263 265 266 268 270 272 273 274 276 277 278
232 233 235 237 238 241 241 241 239 237 235 233 232 231 230 230 228 228 229 231 233 234 235 235 235 237 240 241 243 245 247 249 251 253 255 257 259 262 264 265 266 268 269 270 272 274 275 277 278
234 235 236 238 239 240 240 241 240 238 237 234 231 231 232 231 229 229 230 230 232 234 235 235 236 237 240 241 243 245 247 249 251 254 256 258 260 262 264 265 267 268 270 271 272 273 274 276 278
232 233 235 239 240 241 241 241 240 240 238 236 233 231 231 232 232 231 231 231 232 234 236 237 237 238 240 241 243 245 247 249 252 254 256 257 259 261 263 265 267 269 270 271 272 273 274 276 278
231 234 234 236 239 241 242 242 243 240 239 238 235 233 234 235 234 233 233 234 233 234 236 238 239 239 240 241 243 245 247 249 252 254 256 257 258 260 262 264 266 268 271 272 274 274 275 277 278
228 230 233 237 240 242 243 245 244 244 244 241 237 235 235 236 237 237 235 235 235 235 236 238 239 240 240 241 243 245 247 249 251 253 255 256 258 260 262 264 265 268 271 273 274 276 276 277 278
234 233 234 236 241 245 246 247 245 247 247 245 241 238 238 237 238 238 237 236 237 236 236 237 239 239 240 241 243 245 247 249 251 253 255 257 259 261 262 264 266 269 271 273 275 277 278 278 278
Height
5826 5829 5832 5835 5838 5841 5844 5848 5850 5852 5855 5856 5858 5859 5861 5863 5866 5870 5869 5869 5871 5872 5873 5875 5876 5877 5878 5879 5880 5881 5882 5882 5883 5884 5884 5885 5885 5885 5885 5885 5885 5885 5885 5884 5884 5884 5883 5883 5882
5819 5823 5826 5829 5831 5835 5840 5844 5846 5848 5851 5852 5854 5855 5858 5860 5862 5864 5866 5867 5869 5870 5872 5873 5874 5876 5877 5878 5879 5880 5881 5882 5882 5883 5884 5884 5884 5885 5885 5885 5884 5884 5884 5884 5883 5883 5882 5882 5881
5812 5815 5819 5821 5825 5830 5836 5839 5841 5843 5846 5848 5849 5851 5854 5857 5859 5861 5863 5864 5866 5868 5870 5871 5872 5874 5875 5877 5878 5879 5880 5881 5881 5882 5883 5883 5883 5884 5884 5884 5884 5883 5883 5883 5883 5882 5882 5881 5881
5805 5808 5811 5815 5819 5826 5830 5833 5834 5837 5841 5843 5845 5847 5850 5853 5855 5857 5859 5861 5863 5865 5867 5869 5870 5872 5873 5875 5876 5877 5878 5879 5880 5881 5881 5882 5882 5882 5882 5882 5882 5882 5882 5882 5882 5881 5881 5880 5879
5796 5799 5803 5807 5813 5820 5824 5826 5828 5832 5835 5837 5840 5843 5845 5849 5851 5853 5855 5858 5860 5862 5864 5866 5868 5869 5871 5872 5874 5875 5877 5878 5878 5879 5880 5880 5881 5881 5881 5881 5881 5881 5881 5880 5880 5880 5879 5878 5878
5787 5791 5795 5800 5807 5813 5817 5819 5822 5825 5829 5832 5835 5837 5840 5844 5847 5849 5851 5854 5856 5859 5861 5863 5865 5866 5868 5870 5872 5873 5874 5875 5876 5877 5878 5878 5879 5879 5879 5879 5879 5879 5879 5878 5878 5878 5877 5877 5876
5779 5783 5787 5794 5799 5805 5809 5812 5815 5819 5823 5826 5829 5832 5835 5839 5842 5844 5847 5850 5852 5855 5857 5859 5861 5863 5865 5867 5869 5870 5872 5873 5874 5875 5875 5876 5876 5877 5877 5877 5877 5877 5876 5876 5876 5876 5875 5875 5874
5769 5774 5779 5785 5790 5797 5802 5804 5807 5812 5816 5819 5822 5826 5830 5834 5836 5839 5842 5845 5848 5851 5853 5856 5858 5860 5862 5864 5866 5867 5869 5870 5871 5872 5873 5873 5874 5874 5874 5875 5875 5874 5874 5874 5873 5873 5873 5872 5871
5759 5765 5770 5777 5782 5788 5792 5796 5800 5804 5808 5812 5816 5820 5824 5827 5831 5834 5837 5840 5843 5846 5849 5851 5854 5856 5858 5860 5862 5864 5865 5867 5868 5869 5870 5870 5871 5871 5872 5872 5872 5872 5871 5871 5871 5870 5870 5869 5869
5749 5755 5762 5768 5772 5778 5782 5787 5791 5795 5800 5805 5809 5813 5817 5821 5825 5829 5832 5835 5838 5841 5844 5847 5849 5852 5854 5856 5858 5860 5862 5863 5864 5865 5866 5867 5868 5868 5868 5869 5869 5869 5868 5868 5868 5867 5867 5866 5865
5741 5747 5753 5758 5762 5767 5772 5778 5782 5787 5792 5798 5802 5807 5810 5814 5819 5823 5827 5829 5833 5836 5838 5842 5844 5847 5849 5852 5854 5856 5858 5859 5860 5862 5863 5863 5864 5865 5865 5865 5865 5865 5865 5865 5864 5864 5863 5863 5862
5732 5738 5743 5748 5752 5757 5762 5768 5773 5778 5786 5790 5795 5799 5803 5807 5812 5816 5820 5824 5827 5830 5833 5836 5839 5842 5845 5847 5849 5851 5853 5855 5856 5857 5858 5859 5860 5861 5861 5861 5861 5861 5861 5861 5861 5860 5859 5859 5858
5722 5728 5733 5738 5742 5747 5752 5758 5764 5770 5776 5781 5786 5791 5795 5800 5805 5809 5814 5817 5821 5824 5827 5831 5834 5837 5839 5842 5844 5846 5848 5850 5852 5853 5854 5855 5856 5857 5857 5857 5857 5857 5857 5857 5857 5856 5855 5855 5854
5713 5717 5722 5727 5732 5737 5742 5748 5754 5761 5767 5772 5777 5783 5787 5792 5797 5802 5807 5811 5815 5818 5822 5825 5828 5831 5834 5836 5839 5841 5843 5845 5847 5848 5849 5850 5851 5852 5852 5852 5853 5853 5853 5852 5852 5851 5851 5850 5849
5701 5705 5710 5716 5721 5727 5732 5738 5745 5752 5757 5763 5768 5774 5778 5783 5789 5794 5799 5804 5808 5812 5815 5819 5822 5825 5828 5830 5833 5835 5837 5839 5841 5843 5844 5845 5846 5847 5847 5848 5848 5848 5848 5847 5847 5846 5846 5845 5844
5689 5693 5700 5707 5712 5717 5722 5729 5737 5741 5746 5753 5759 5764 5770 5775 5781 5786 5791 5796 5800 5804 5808 5812 5815 5818 5821 5824 5827 5829 5831 5833 5835 5837 5838 5839 5840 5841 5842 5842 5843 5842 5842 5842 5842 5841 5840 5840 5839
5680 5685 5691 5698 5702 5707 5712 5719 5727 5730 5736 5743 5749 5755 5760 5766 5772 5777 5783 5788 5792 5797 5801 5805 5808 5812 5814 5817 5820 5822 5825 5827 5829 5830 5832 5834 5835 5835 5836 5837 5837 5837 5837 5836 5836 5835 5834 5834 5833
5675 5679 5684 5689 5695 5699 5703 5710 5717 5721 5726 5733 5739 5745 5751 5757 5764 5769 5774 5779 5783 5788 5793 5797 5800 5804 5807 5810 5813 5815 5818 5820 5822 5824 5825 5827 5828 5829 5830 5830 5831 5831 5831 5830 5830 5829 5828 5827 5826
5669 5673 5678 5683 5687 5691 5695 5701 5707 5712 5717 5723 5729 5735 5742 5748 5754 5760 5765 5770 5775 5780 5784 5789 5793 5796 5800 5803 5806 5808 5811 5813 5815 5817 5819 5820 5821 5822 5823 5824 5824 5824 5824 5824 5823 5823 5822 5821 5819
5662 5666 5671 5676 5680 5683 5687 5692 5698 5703 5708 5714 5719 5726 5732 5739 5744 5750 5756 5761 5767 5772 5776 5780 5785 5789 5792 5795 5798 5801 5803 5806 5808 5810 5811 5813 5814 5815 5816 5816 5817 5817 5817 5817 5816 5816 5815 5814 5812
5656 5660 5665 5669 5673 5675 5679 5684 5689 5694 5699 5704 5710 5716 5722 5729 5735 5741 5747 5753 5758 5763 5768 5772 5776 5780 5784 5787 5790 5793 5795 5798 5800 5802 5804 5805 5806 5807 5808 5808 5809 5809 5809 5809 5809 5808 5807 5806 5805
5651 5655 5658 5662 5665 5668 5672 5675 5682 5686 5690 5696 5701 5706 5713 5719 5725 5731 5737 5743 5749 5755 5759 5763 5767 5772 5776 5779 5782 5785 5788 5791 5793 5794 5796 5797 5798 5799 5800 5800 5801 5801 5801 5801 5801 5800 5799 5798 5797
5646 5649 5652 5655 5658 5661 5664 5667 5674 5678 5683 5688 5693 5698 5704 5710 5716 5722 5728 5734 5740 5745 5750 5754 5758 5763 5767 5770 5774 5777 5780 5782 5784 5786 5788 5789 5790 5791 5792 5792 5792 5793 5793 5792 5792 5791 5791 5790 5788
5639 5643 5645 5648 5650 5654 5658 5660 5666 5671 5676 5681 5685 5690 5695 5701 5708 5714 5719 5725 5730 5735 5740 5745 5749 5754 5758 5762 5765 5768 5771 5773 5775 5777 5779 5780 5782 5783 5783 5783 5784 5784 5784 5784 5783 5783 5782 5781 5780
5632 5636 5638 5640 5642 5647 5651 5653 5659 5664 5668 5673 5677 5682 5687 5692 5699 5705 5711 5716 5721 5726 5731 5736 5740 5745 5749 5753 5756 5759 5761 5764 5766 5768 5770 5772 5773 5774 5774 5774 5775 5775 5775 5775 5774 5774 5773 5772 5771
5627 5630 5633 5635 5637 5641 5644 5646 5652 5657 5661 5664 5669 5674 5679 5684 5690 5696 5702 5707 5712 5717 5722 5726 5731 5736 5739 5743 5747 5749 5752 5755 5757 5759 5761 5762 5763 5764 5765 5765 5765 5765 5765 5765 5765 5764 5764 5762 5761
5621 5624 5627 5629 5631 5634 5636 5641 5645 5649 5653 5657 5662 5666 5671 5676 5681 5687 5693 5698 5703 5707 5712 5717 5721 5725 5729 5733 5737 5740 5742 5745 5747 5749 5751 5753 5754 5755 5755 5756 5756 5756 5755 5755 5755 5755 5754 5752 5751
5617 5619 5621 5623 5625 5627 5630 5634 5638 5642 5646 5651 5654 5659 5663 5668 5672 5677 5683 5688 5693 5697 5702 5706 5711 5715 5719 5723 5726 5729 5732 5735 5737 5739 5741 5743 5744 5745 5746 5746 5747 5746 5746 5745 5745 5744 5743 5742 5740
5612 5615 5616 5618 5620 5622 5624 5630 5633 5636 5640 5643 5647 5650 5654 5659 5663 5668 5672 5677 5682 5687 5691 5696 5700 5704 5708 5712 5716 5719 5722 5724 5727 5729 5731 5732 5734 5735 5736 5736 5737 5737 5736 5735 5735 5734 5733 5731 5730
5608 5610 5612 5614 5616 5617 5619 5626 5627 5630 5633 5636 5639 5642 5646 5650 5653 5657 5661 5667 5671 5676 5681 5685 5690 5694 5698 5702 5705 5708 5711 5714 5716 5718 5720 5722 5723 5725 5725 5726 5726 5726 5726 5725 5725 5723 5722 5720 5719